User: anonymous   Login
Location: Napier
(39.4830°S, 176.9170°E)
Time: 13:37:01
(UTC+13:00)
Language:

Cosmos 1633 - Orbit

View from above orbital plane
View from above orbital plane
View from above satellite
View from above satellite

Ground track
Ground track

The orbit data is extracted from the following two-line orbital elements,

1 15592U 85020A   19288.80360279  .00001030  00000-0  33532-4 0  9994
2 15592  82.5404 185.5550 0014303  48.2271 312.0189 15.30539410894322
Epoch (UTC): 15 October 2019 19:17:11
Eccentricity: 0.0014303
inclination: 82.5404°
perigee height: 464 km
apogee height: 484 km
right ascension of ascending node: 185.5550°
argument of perigee: 48.2271°
revolutions per day: 15.30539410
mean anomaly at epoch: 312.0189°
orbit number at epoch: 89432

The dashed part of the orbit path shows where the satellite is in the earth's shadow,  

DLR